PERSEUS-M1

Last updated on Thu Nov 06 2025 00:03:48 GMT+0000 (Coordinated Universal Time)

1 40039U 14033AF 25308.77130582 .00003146 00000+0 29686-3 0 9995 2 40039 97.9402 244.7251 0010959 330.0117 30.0474 14.94471896617109
UTC large
Height (km)
Speed (km/s)
/
Latitude / Longitude
Inclination (degrees)
Orbital Period (minutes)
Azimuth
Elevation
Range (km)
Doppler Factor

Next 0 passes for location: London (51.5072 / 0.1276)

Sorry there are no passes over London.